Time,TemperatureF,DewpointF,PressureIn,WindDirection,WindDirectionDegrees,WindSpeedMPH,WindSpeedGustMPH,Humidity,HourlyPrecipIn,Conditions,Clouds,dailyrainin,SoftwareType,DateUTC
2013-03-07 00:00:00,50.8,47.1,30.20,East,86,0.0,0.0,87,0.00,,---,0.00,VWS V14.01,2013-03-07 06:00:00,
2013-03-07 00:05:00,50.7,47.0,30.20,East,86,0.0,0.0,87,0.00,,---,0.00,VWS V14.01,2013-03-07 06:05:00,
2013-03-07 00:10:00,50.6,46.9,30.20,East,86,0.0,0.0,87,0.00,,---,0.00,VWS V14.01,2013-03-07 06:10:00,
2013-03-07 00:15:00,50.6,46.9,30.19,East,86,0.0,0.0,87,0.00,,---,0.00,VWS V14.01,2013-03-07 06:15:00,
2013-03-07 00:20:00,50.6,47.2,30.19,East,86,0.0,0.0,88,0.00,,---,0.00,VWS V14.01,2013-03-07 06:20:00,
2013-03-07 00:25:00,50.7,47.6,30.19,East,86,0.0,0.0,89,0.00,,---,0.00,VWS V14.01,2013-03-07 06:25:00,
2013-03-07 00:30:00,50.8,47.7,30.20,East,86,0.0,0.0,89,0.00,,---,0.00,VWS V14.01,2013-03-07 06:30:00,
2013-03-07 00:35:00,50.7,47.3,30.20,East,86,0.0,0.0,88,0.00,,---,0.00,VWS V14.01,2013-03-07 06:35:00,
2013-03-07 00:40:00,50.6,47.2,30.19,East,86,0.0,0.0,88,0.00,,---,0.00,VWS V14.01,2013-03-07 06:40:00,
2013-03-07 00:45:00,50.6,47.2,30.19,East,86,0.0,0.0,88,0.00,,---,0.00,VWS V14.01,2013-03-07 06:45:00,
2013-03-07 00:50:00,50.5,47.1,30.19,East,86,0.0,0.0,88,0.00,,---,0.00,VWS V14.01,2013-03-07 06:50:00,
2013-03-07 00:55:00,50.5,47.4,30.18,East,86,0.0,0.0,89,0.00,,---,0.00,VWS V14.01,2013-03-07 06:55:00,
2013-03-07 01:00:00,50.6,47.5,30.17,East,86,0.0,0.0,89,0.00,,---,0.00,VWS V14.01,2013-03-07 07:00:00,
2013-03-07 01:05:00,50.8,47.7,30.17,East,86,0.0,0.0,89,0.00,,---,0.00,VWS V14.01,2013-03-07 07:05:00,
2013-03-07 01:10:00,51.1,48.0,30.17,East,89,1.0,1.0,89,0.00,,---,0.00,VWS V14.01,2013-03-07 07:10:00,
2013-03-07 01:15:00,51.8,49.0,30.17,East,90,0.0,0.0,90,0.00,,---,0.00,VWS V14.01,2013-03-07 07:15:00,
2013-03-07 01:20:00,52.0,49.2,30.17,East,90,0.0,0.0,90,0.00,,---,0.00,VWS V14.01,2013-03-07 07:20:00,
2013-03-07 01:25:00,52.0,48.9,30.17,East,90,0.0,0.0,89,0.00,,---,0.00,VWS V14.01,2013-03-07 07:25:00,
2013-03-07 01:30:00,51.9,48.8,30.17,East,90,0.0,0.0,89,0.00,,---,0.00,VWS V14.01,2013-03-07 07:30:00,
2013-03-07 01:35:00,51.7,48.6,30.16,East,90,0.0,0.0,89,0.00,,---,0.00,VWS V14.01,2013-03-07 07:35:00,
2013-03-07 01:40:00,51.6,48.5,30.16,East,90,0.0,0.0,89,0.00,,---,0.00,VWS V14.01,2013-03-07 07:40:00,
2013-03-07 01:45:00,51.8,49.0,30.16,East,90,0.0,0.0,90,0.00,,---,0.00,VWS V14.01,2013-03-07 07:45:00,
2013-03-07 01:50:00,52.1,49.3,30.15,East,91,0.0,0.0,90,0.00,,---,0.00,VWS V14.01,2013-03-07 07:50:00,
2013-03-07 01:55:00,52.4,49.6,30.15,East,91,0.0,0.0,90,0.00,,---,0.00,VWS V14.01,2013-03-07 07:55:00,
2013-03-07 02:00:00,52.6,49.8,30.15,East,92,0.0,0.0,90,0.00,,---,0.00,VWS V14.01,2013-03-07 08:00:00,
2013-03-07 02:05:00,53.0,50.2,30.15,East,99,0.0,0.0,90,0.00,,---,0.00,VWS V14.01,2013-03-07 08:05:00,
2013-03-07 02:10:00,53.7,50.8,30.14,ESE,106,2.0,2.0,90,0.00,,---,0.00,VWS V14.01,2013-03-07 08:10:00,
2013-03-07 02:15:00,54.1,51.2,30.15,ESE,115,0.0,0.0,90,0.00,,---,0.00,VWS V14.01,2013-03-07 08:15:00,
2013-03-07 02:20:00,54.4,51.2,30.15,SE,130,1.0,1.0,89,0.00,,---,0.00,VWS V14.01,2013-03-07 08:20:00,
2013-03-07 02:25:00,54.6,51.4,30.15,SE,132,0.0,0.0,89,0.00,,---,0.00,VWS V14.01,2013-03-07 08:25:00,
2013-03-07 02:30:00,54.7,51.2,30.14,SE,132,0.0,0.0,88,0.00,,---,0.00,VWS V14.01,2013-03-07 08:30:00,
2013-03-07 02:35:00,54.6,51.1,30.14,SE,132,0.0,0.0,88,0.00,,---,0.00,VWS V14.01,2013-03-07 08:35:00,
2013-03-07 02:40:00,54.5,50.7,30.14,SE,132,1.0,1.0,87,0.00,,---,0.00,VWS V14.01,2013-03-07 08:40:00,
2013-03-07 02:45:00,54.4,50.9,30.14,SE,132,1.0,1.0,88,0.00,,---,0.00,VWS V14.01,2013-03-07 08:45:00,
2013-03-07 02:50:00,54.3,50.8,30.13,SE,132,0.0,0.0,88,0.00,,---,0.00,VWS V14.01,2013-03-07 08:50:00,
2013-03-07 02:55:00,54.2,50.7,30.13,SE,132,0.0,0.0,88,0.00,,---,0.00,VWS V14.01,2013-03-07 08:55:00,
2013-03-07 03:00:00,54.1,50.6,30.13,SE,132,0.0,0.0,88,0.00,,---,0.00,VWS V14.01,2013-03-07 09:00:00,
2013-03-07 03:05:00,53.9,50.4,30.12,SE,132,0.0,0.0,88,0.00,,---,0.00,VWS V14.01,2013-03-07 09:05:00,
2013-03-07 03:10:00,53.9,50.7,30.12,SE,132,0.0,0.0,89,0.00,,---,0.00,VWS V14.01,2013-03-07 09:10:00,
2013-03-07 03:15:00,54.0,50.8,30.12,SE,132,0.0,0.0,89,0.00,,---,0.00,VWS V14.01,2013-03-07 09:15:00,
2013-03-07 03:20:00,53.9,50.7,30.12,SE,132,0.0,0.0,89,0.00,,---,0.00,VWS V14.01,2013-03-07 09:20:00,
2013-03-07 03:25:00,53.8,50.6,30.12,SE,132,0.0,0.0,89,0.00,,---,0.00,VWS V14.01,2013-03-07 09:25:00,
2013-03-07 03:30:00,53.7,50.5,30.11,SE,132,0.0,0.0,89,0.00,,---,0.00,VWS V14.01,2013-03-07 09:30:00,
2013-03-07 03:35:00,53.6,50.4,30.11,SE,132,0.0,0.0,89,0.00,,---,0.00,VWS V14.01,2013-03-07 09:35:00,
2013-03-07 03:40:00,53.3,50.2,30.11,SE,132,0.0,0.0,89,0.00,,---,0.00,VWS V14.01,2013-03-07 09:40:00,
2013-03-07 03:45:00,53.1,50.0,30.11,SE,132,0.0,0.0,89,0.00,,---,0.00,VWS V14.01,2013-03-07 09:45:00,
2013-03-07 03:50:00,52.9,49.8,30.11,SE,132,0.0,0.0,89,0.00,,---,0.00,VWS V14.01,2013-03-07 09:50:00,
2013-03-07 03:55:00,52.6,49.5,30.11,SE,132,0.0,0.0,89,0.00,,---,0.00,VWS V14.01,2013-03-07 09:55:00,
2013-03-07 04:00:00,52.4,49.3,30.11,SE,132,0.0,0.0,89,0.00,,---,0.00,VWS V14.01,2013-03-07 10:00:00,
2013-03-07 04:05:00,52.4,49.6,30.10,SE,132,0.0,0.0,90,0.00,,---,0.00,VWS V14.01,2013-03-07 10:05:00,
2013-03-07 04:10:00,52.2,49.4,30.11,SE,132,0.0,0.0,90,0.00,,---,0.00,VWS V14.01,2013-03-07 10:10:00,
2013-03-07 04:15:00,52.0,49.2,30.11,SE,132,0.0,0.0,90,0.00,,---,0.00,VWS V14.01,2013-03-07 10:15:00,
2013-03-07 04:20:00,51.7,48.9,30.10,SE,132,0.0,0.0,90,0.00,,---,0.00,VWS V14.01,2013-03-07 10:20:00,
2013-03-07 04:25:00,51.8,49.3,30.10,SE,132,0.0,0.0,91,0.00,,---,0.00,VWS V14.01,2013-03-07 10:25:00,
2013-03-07 04:30:00,51.7,49.2,30.10,SE,132,0.0,0.0,91,0.00,,---,0.00,VWS V14.01,2013-03-07 10:30:00,
2013-03-07 04:35:00,51.5,49.0,30.10,SE,132,0.0,0.0,91,0.00,,---,0.00,VWS V14.01,2013-03-07 10:35:00,
2013-03-07 04:40:00,51.4,48.9,30.10,SE,132,0.0,0.0,91,0.00,,---,0.00,VWS V14.01,2013-03-07 10:40:00,
2013-03-07 04:45:00,51.2,48.7,30.10,SE,132,0.0,0.0,91,0.00,,---,0.00,VWS V14.01,2013-03-07 10:45:00,
2013-03-07 04:50:00,51.0,48.5,30.10,SE,132,0.0,0.0,91,0.00,,---,0.00,VWS V14.01,2013-03-07 10:50:00,
2013-03-07 04:55:00,50.9,48.4,30.10,SE,132,0.0,0.0,91,0.00,,---,0.00,VWS V14.01,2013-03-07 10:55:00,
2013-03-07 05:00:00,50.7,48.2,30.11,SE,132,0.0,0.0,91,0.00,,---,0.00,VWS V14.01,2013-03-07 11:00:00,
2013-03-07 05:05:00,50.5,48.0,30.11,SE,132,0.0,0.0,91,0.00,,---,0.00,VWS V14.01,2013-03-07 11:05:00,
2013-03-07 05:10:00,50.5,48.0,30.10,SE,132,0.0,0.0,91,0.00,,---,0.00,VWS V14.01,2013-03-07 11:10:00,
2013-03-07 05:15:00,50.4,47.9,30.11,SE,132,0.0,0.0,91,0.00,,---,0.00,VWS V14.01,2013-03-07 11:15:00,
2013-03-07 05:20:00,50.5,48.3,30.11,SE,132,0.0,0.0,92,0.00,,---,0.00,VWS V14.01,2013-03-07 11:20:00,
2013-03-07 05:25:00,50.5,48.3,30.12,SE,132,0.0,0.0,92,0.00,,---,0.00,VWS V14.01,2013-03-07 11:25:00,
2013-03-07 05:30:00,50.6,48.4,30.12,SE,132,0.0,0.0,92,0.00,,---,0.00,VWS V14.01,2013-03-07 11:30:00,
2013-03-07 05:35:00,50.6,48.4,30.12,SE,132,0.0,0.0,92,0.00,,---,0.00,VWS V14.01,2013-03-07 11:35:00,
2013-03-07 05:40:00,50.7,48.8,30.12,SE,132,0.0,0.0,93,0.00,,---,0.00,VWS V14.01,2013-03-07 11:40:00,
2013-03-07 05:45:00,51.0,49.0,30.11,SE,132,0.0,0.0,93,0.00,,---,0.00,VWS V14.01,2013-03-07 11:45:00,
2013-03-07 05:50:00,51.2,49.2,30.11,SE,132,0.0,0.0,93,0.00,,---,0.00,VWS V14.01,2013-03-07 11:50:00,
2013-03-07 05:55:00,51.2,49.2,30.12,SE,132,0.0,0.0,93,0.00,,---,0.00,VWS V14.01,2013-03-07 11:55:00,
2013-03-07 06:00:00,51.3,49.3,30.12,SE,132,0.0,0.0,93,0.00,,---,0.00,VWS V14.01,2013-03-07 12:00:00,
2013-03-07 06:05:00,51.2,49.2,30.12,SE,132,0.0,0.0,93,0.00,,---,0.00,VWS V14.01,2013-03-07 12:05:00,
2013-03-07 06:10:00,51.2,49.2,30.12,SE,132,0.0,0.0,93,0.00,,---,0.00,VWS V14.01,2013-03-07 12:10:00,
2013-03-07 06:15:00,51.2,49.2,30.12,SE,132,0.0,0.0,93,0.00,,---,0.00,VWS V14.01,2013-03-07 12:15:00,
2013-03-07 06:20:00,51.1,49.2,30.13,SE,132,0.0,0.0,93,0.00,,---,0.00,VWS V14.01,2013-03-07 12:20:00,
2013-03-07 06:25:00,51.1,49.2,30.13,SE,132,0.0,0.0,93,0.00,,---,0.00,VWS V14.01,2013-03-07 12:25:00,
2013-03-07 06:30:00,51.0,49.0,30.13,SE,132,0.0,0.0,93,0.00,,---,0.00,VWS V14.01,2013-03-07 12:30:00,
2013-03-07 06:35:00,51.0,49.0,30.13,SE,132,0.0,0.0,93,0.00,,---,0.00,VWS V14.01,2013-03-07 12:35:00,
2013-03-07 06:40:00,50.9,49.0,30.13,SE,132,0.0,0.0,93,0.00,,---,0.00,VWS V14.01,2013-03-07 12:40:00,
2013-03-07 06:45:00,51.0,49.0,30.13,SE,132,0.0,0.0,93,0.00,,---,0.00,VWS V14.01,2013-03-07 12:45:00,
2013-03-07 06:50:00,51.0,49.0,30.13,SE,132,0.0,0.0,93,0.00,,---,0.00,VWS V14.01,2013-03-07 12:50:00,
2013-03-07 06:55:00,51.0,49.0,30.13,SE,132,0.0,0.0,93,0.00,,---,0.00,VWS V14.01,2013-03-07 12:55:00,
2013-03-07 07:00:00,51.2,49.2,30.13,SE,132,0.0,0.0,93,0.00,,---,0.00,VWS V14.01,2013-03-07 13:00:00,
2013-03-07 07:05:00,51.3,49.3,30.13,SE,132,0.0,0.0,93,0.00,,---,0.00,VWS V14.01,2013-03-07 13:05:00,
2013-03-07 07:10:00,51.4,49.5,30.14,SE,132,0.0,0.0,93,0.00,,---,0.00,VWS V14.01,2013-03-07 13:10:00,
2013-03-07 07:15:00,51.4,49.7,30.14,SE,136,0.0,0.0,94,0.00,,---,0.00,VWS V14.01,2013-03-07 13:15:00,
2013-03-07 07:20:00,51.6,49.9,30.14,NW,321,0.0,0.0,94,0.00,,---,0.00,VWS V14.01,2013-03-07 13:20:00,
2013-03-07 07:25:00,52.0,50.3,30.13,NW,319,0.0,0.0,94,0.00,,---,0.00,VWS V14.01,2013-03-07 13:25:00,
2013-03-07 07:30:00,52.4,50.7,30.13,ENE,69,0.0,0.0,94,0.00,,---,0.00,VWS V14.01,2013-03-07 13:30:00,
2013-03-07 07:35:00,53.2,51.8,30.14,ENE,69,0.0,0.0,95,0.00,,---,0.00,VWS V14.01,2013-03-07 13:35:00,
2013-03-07 07:40:00,54.0,52.6,30.14,ENE,69,0.0,0.0,95,0.00,,---,0.00,VWS V14.01,2013-03-07 13:40:00,
2013-03-07 07:45:00,54.9,53.5,30.15,SSE,161,0.0,0.0,95,0.00,,---,0.00,VWS V14.01,2013-03-07 13:45:00,
2013-03-07 07:50:00,56.0,54.6,30.15,SSE,161,0.0,0.0,95,0.00,,---,0.00,VWS V14.01,2013-03-07 13:50:00,
2013-03-07 07:55:00,56.7,55.3,30.15,SSW,194,0.0,0.0,95,0.00,,---,0.00,VWS V14.01,2013-03-07 13:55:00,
2013-03-07 08:00:00,57.4,56.0,30.16,SSW,193,0.0,0.0,95,0.00,,---,0.00,VWS V14.01,2013-03-07 14:00:00,
2013-03-07 08:05:00,58.0,56.6,30.16,SE,144,0.0,0.0,95,0.00,,---,0.00,VWS V14.01,2013-03-07 14:05:00,
2013-03-07 08:10:00,58.7,57.3,30.16,SE,128,0.0,0.0,95,0.00,,---,0.00,VWS V14.01,2013-03-07 14:10:00,
2013-03-07 08:15:00,59.5,58.1,30.16,East,90,2.0,2.0,95,0.00,,---,0.00,VWS V14.01,2013-03-07 14:15:00,
2013-03-07 08:20:00,60.4,59.0,30.16,East,94,2.0,2.0,95,0.00,,---,0.00,VWS V14.01,2013-03-07 14:20:00,
2013-03-07 08:25:00,61.3,59.3,30.16,East,96,1.0,3.0,93,0.00,,---,0.00,VWS V14.01,2013-03-07 14:25:00,
2013-03-07 08:30:00,62.4,60.0,30.16,ESE,112,1.0,3.0,92,0.00,,---,0.00,VWS V14.01,2013-03-07 14:30:00,
2013-03-07 08:35:00,63.2,59.6,30.16,SE,126,4.0,5.0,88,0.00,,---,0.00,VWS V14.01,2013-03-07 14:35:00,
2013-03-07 08:40:00,64.0,59.7,30.16,ESE,114,2.0,5.0,86,0.00,,---,0.00,VWS V14.01,2013-03-07 14:40:00,
2013-03-07 08:45:00,65.1,59.8,30.16,ESE,119,6.0,7.0,83,0.00,,---,0.00,VWS V14.01,2013-03-07 14:45:00,
2013-03-07 08:50:00,65.9,59.6,30.17,ESE,113,5.0,7.0,80,0.00,,---,0.00,VWS V14.01,2013-03-07 14:50:00,
2013-03-07 08:55:00,66.4,59.3,30.17,SE,128,9.0,9.0,78,0.00,,---,0.00,VWS V14.01,2013-03-07 14:55:00,
2013-03-07 09:00:00,66.6,59.2,30.16,SE,144,10.0,12.0,77,0.00,,---,0.00,VWS V14.01,2013-03-07 15:00:00,
2013-03-07 09:05:00,67.0,58.8,30.16,ESE,113,7.0,11.0,75,0.00,,---,0.00,VWS V14.01,2013-03-07 15:05:00,
2013-03-07 09:10:00,67.6,59.0,30.16,ESE,116,10.0,12.0,74,0.00,,---,0.00,VWS V14.01,2013-03-07 15:10:00,
2013-03-07 09:15:00,67.8,58.8,30.16,SE,139,11.0,14.0,73,0.00,,---,0.00,VWS V14.01,2013-03-07 15:15:00,
2013-03-07 09:20:00,68.2,59.2,30.16,SE,146,9.0,11.0,73,0.00,,---,0.00,VWS V14.01,2013-03-07 15:20:00,
2013-03-07 09:25:00,68.3,58.5,30.16,ESE,123,10.0,15.0,71,0.00,,---,0.00,VWS V14.01,2013-03-07 15:25:00,
2013-03-07 09:30:00,67.9,58.9,30.17,SE,140,9.0,14.0,73,0.00,,---,0.00,VWS V14.01,2013-03-07 15:30:00,
2013-03-07 09:35:00,68.0,59.0,30.17,SSE,165,8.0,14.0,73,0.00,,---,0.00,VWS V14.01,2013-03-07 15:35:00,
2013-03-07 09:40:00,68.1,59.1,30.17,SE,128,14.0,14.0,73,0.00,,---,0.00,VWS V14.01,2013-03-07 15:40:00,
2013-03-07 09:45:00,68.4,59.4,30.17,SE,131,10.0,12.0,73,0.00,,---,0.00,VWS V14.01,2013-03-07 15:45:00,
2013-03-07 09:50:00,69.2,59.4,30.18,SE,128,6.0,13.0,71,0.00,,---,0.00,VWS V14.01,2013-03-07 15:50:00,
2013-03-07 09:55:00,69.9,58.9,30.17,SE,127,7.0,9.0,68,0.00,,---,0.00,VWS V14.01,2013-03-07 15:55:00,
2013-03-07 10:00:00,70.1,59.1,30.18,SE,132,2.0,5.0,68,0.00,,---,0.00,VWS V14.01,2013-03-07 16:00:00,
2013-03-07 10:05:00,69.5,58.9,30.18,SE,126,6.0,9.0,69,0.00,,---,0.00,VWS V14.01,2013-03-07 16:05:00,
2013-03-07 10:10:00,69.4,59.2,30.17,SSE,149,7.0,9.0,70,0.00,,---,0.00,VWS V14.01,2013-03-07 16:10:00,
2013-03-07 10:15:00,69.6,59.4,30.17,SE,142,7.0,9.0,70,0.00,,---,0.00,VWS V14.01,2013-03-07 16:15:00,
2013-03-07 10:20:00,70.3,59.7,30.17,ESE,103,11.0,11.0,69,0.00,,---,0.00,VWS V14.01,2013-03-07 16:20:00,
2013-03-07 10:25:00,70.2,59.6,30.17,East,98,10.0,14.0,69,0.00,,---,0.00,VWS V14.01,2013-03-07 16:25:00,
2013-03-07 10:30:00,69.9,59.7,30.17,SE,126,6.0,10.0,70,0.00,,---,0.00,VWS V14.01,2013-03-07 16:30:00,
2013-03-07 10:35:00,70.8,60.1,30.17,East,92,10.0,10.0,69,0.00,,---,0.00,VWS V14.01,2013-03-07 16:35:00,
2013-03-07 10:40:00,70.7,59.6,30.17,ESE,107,9.0,13.0,68,0.00,,---,0.00,VWS V14.01,2013-03-07 16:40:00,
2013-03-07 10:45:00,70.2,59.6,30.18,SSE,147,13.0,13.0,69,0.00,,---,0.00,VWS V14.01,2013-03-07 16:45:00,
2013-03-07 10:50:00,70.4,59.8,30.18,ESE,107,7.0,12.0,69,0.00,,---,0.00,VWS V14.01,2013-03-07 16:50:00,
2013-03-07 10:55:00,70.5,59.8,30.18,SSE,162,9.0,13.0,69,0.00,,---,0.00,VWS V14.01,2013-03-07 16:55:00,
2013-03-07 11:00:00,71.5,60.0,30.17,ESE,110,6.0,9.0,67,0.00,,---,0.00,VWS V14.01,2013-03-07 17:00:00,
2013-03-07 11:05:00,71.6,60.1,30.17,East,101,7.0,10.0,67,0.00,,---,0.00,VWS V14.01,2013-03-07 17:05:00,
2013-03-07 11:10:00,71.3,59.4,30.16,ESE,121,12.0,12.0,66,0.00,,---,0.00,VWS V14.01,2013-03-07 17:10:00,
2013-03-07 11:15:00,71.2,60.1,30.16,East,90,13.0,17.0,68,0.00,,---,0.00,VWS V14.01,2013-03-07 17:15:00,
2013-03-07 11:20:00,71.1,60.0,30.16,East,80,12.0,14.0,68,0.00,,---,0.00,VWS V14.01,2013-03-07 17:20:00,
2013-03-07 11:25:00,70.8,60.1,30.16,East,98,16.0,18.0,69,0.00,,---,0.00,VWS V14.01,2013-03-07 17:25:00,
2013-03-07 11:30:00,70.8,59.7,30.16,ESE,113,14.0,16.0,68,0.00,,---,0.00,VWS V14.01,2013-03-07 17:30:00,
2013-03-07 11:35:00,70.6,60.0,30.15,East,98,9.0,9.0,69,0.00,,---,0.00,VWS V14.01,2013-03-07 17:35:00,
2013-03-07 11:40:00,70.3,59.7,30.15,ESE,117,7.0,14.0,69,0.00,,---,0.00,VWS V14.01,2013-03-07 17:40:00,
2013-03-07 11:45:00,70.8,60.1,30.16,ESE,103,10.0,15.0,69,0.00,,---,0.00,VWS V14.01,2013-03-07 17:45:00,
2013-03-07 11:50:00,71.2,60.1,30.15,ESE,107,12.0,15.0,68,0.00,,---,0.00,VWS V14.01,2013-03-07 17:50:00,
2013-03-07 11:55:00,71.4,60.3,30.15,ESE,118,14.0,14.0,68,0.00,,---,0.00,VWS V14.01,2013-03-07 17:55:00,
2013-03-07 12:00:00,71.9,59.9,30.15,SE,144,14.0,16.0,66,0.00,,---,0.00,VWS V14.01,2013-03-07 18:00:00,
2013-03-07 12:05:00,71.4,59.5,30.15,SE,136,10.0,18.0,66,0.00,,---,0.00,VWS V14.01,2013-03-07 18:05:00,
2013-03-07 12:10:00,71.1,60.0,30.15,ESE,103,12.0,17.0,68,0.00,,---,0.00,VWS V14.01,2013-03-07 18:10:00,
2013-03-07 12:15:00,71.3,59.8,30.15,ESE,122,15.0,17.0,67,0.00,,---,0.00,VWS V14.01,2013-03-07 18:15:00,
2013-03-07 12:20:00,71.1,59.6,30.14,SE,126,5.0,19.0,67,0.00,,---,0.00,VWS V14.01,2013-03-07 18:20:00,
2013-03-07 12:25:00,71.2,60.1,30.14,SSE,156,10.0,18.0,68,0.00,,---,0.00,VWS V14.01,2013-03-07 18:25:00,
2013-03-07 12:30:00,71.3,59.8,30.14,SE,125,13.0,18.0,67,0.00,,---,0.00,VWS V14.01,2013-03-07 18:30:00,
2013-03-07 12:35:00,71.0,59.5,30.14,ESE,119,15.0,15.0,67,0.00,,---,0.00,VWS V14.01,2013-03-07 18:35:00,
2013-03-07 12:40:00,70.9,59.8,30.13,ESE,112,15.0,18.0,68,0.00,,---,0.00,VWS V14.01,2013-03-07 18:40:00,
2013-03-07 12:45:00,71.2,60.1,30.12,East,99,9.0,16.0,68,0.00,,---,0.00,VWS V14.01,2013-03-07 18:45:00,
2013-03-07 12:50:00,71.6,60.1,30.12,ESE,116,6.0,19.0,67,0.00,,---,0.00,VWS V14.01,2013-03-07 18:50:00,
2013-03-07 12:55:00,71.6,59.7,30.12,SE,127,10.0,15.0,66,0.00,,---,0.00,VWS V14.01,2013-03-07 18:55:00,
2013-03-07 13:00:00,71.6,60.1,30.12,ESE,106,15.0,16.0,67,0.00,,---,0.00,VWS V14.01,2013-03-07 19:00:00,
2013-03-07 13:05:00,71.4,60.3,30.11,ENE,76,10.0,15.0,68,0.00,,---,0.00,VWS V14.01,2013-03-07 19:05:00,
2013-03-07 13:11:00,71.2,60.1,30.12,SE,130,12.0,16.0,68,0.00,,---,0.00,VWS V14.01,2013-03-07 19:11:00,
2013-03-07 13:16:00,70.7,59.6,30.12,East,88,11.0,15.0,68,0.00,,---,0.00,VWS V14.01,2013-03-07 19:16:00,
2013-03-07 13:21:00,70.6,60.3,30.11,East,101,11.0,19.0,70,0.00,,---,0.00,VWS V14.01,2013-03-07 19:21:00,
2013-03-07 13:26:00,70.4,60.6,30.11,ESE,111,12.0,15.0,71,0.00,,---,0.00,VWS V14.01,2013-03-07 19:26:00,
2013-03-07 13:31:00,70.4,60.6,30.11,East,98,11.0,11.0,71,0.00,,---,0.00,VWS V14.01,2013-03-07 19:31:00,
2013-03-07 13:36:00,70.3,60.9,30.10,SE,128,15.0,15.0,72,0.00,,---,0.00,VWS V14.01,2013-03-07 19:36:00,
2013-03-07 13:41:00,70.5,60.3,30.10,East,96,18.0,18.0,70,0.00,,---,0.00,VWS V14.01,2013-03-07 19:41:00,
2013-03-07 13:46:00,69.9,60.5,30.10,ESE,118,13.0,14.0,72,0.00,,---,0.00,VWS V14.01,2013-03-07 19:46:00,
2013-03-07 13:51:00,70.2,60.8,30.10,ESE,116,10.0,15.0,72,0.00,,---,0.00,VWS V14.01,2013-03-07 19:51:00,
2013-03-07 13:56:00,70.7,60.8,30.10,East,101,9.0,9.0,71,0.00,,---,0.00,VWS V14.01,2013-03-07 19:56:00,
2013-03-07 14:01:00,70.5,60.7,30.10,ENE,74,14.0,15.0,71,0.00,,---,0.00,VWS V14.01,2013-03-07 20:01:00,
2013-03-07 14:06:00,69.9,60.5,30.10,ESE,111,14.0,15.0,72,0.00,,---,0.00,VWS V14.01,2013-03-07 20:06:00,
2013-03-07 14:11:00,70.1,60.7,30.10,ESE,117,10.0,12.0,72,0.00,,---,0.00,VWS V14.01,2013-03-07 20:11:00,
2013-03-07 14:16:00,70.3,60.5,30.09,ESE,103,14.0,14.0,71,0.00,,---,0.00,VWS V14.01,2013-03-07 20:16:00,
2013-03-07 14:21:00,69.9,60.5,30.09,ESE,109,8.0,12.0,72,0.00,,---,0.00,VWS V14.01,2013-03-07 20:21:00,
2013-03-07 14:26:00,69.5,60.9,30.09,ESE,109,17.0,18.0,74,0.00,,---,0.00,VWS V14.01,2013-03-07 20:26:00,
2013-03-07 14:31:00,69.2,60.6,30.09,ESE,103,12.0,13.0,74,0.00,,---,0.00,VWS V14.01,2013-03-07 20:31:00,
2013-03-07 14:36:00,69.3,60.7,30.09,ESE,103,10.0,13.0,74,0.00,,---,0.00,VWS V14.01,2013-03-07 20:36:00,
2013-03-07 14:41:00,69.1,60.5,30.09,East,96,11.0,14.0,74,0.00,,---,0.00,VWS V14.01,2013-03-07 20:41:00,
2013-03-07 14:46:00,69.0,60.8,30.09,East,92,15.0,19.0,75,0.00,,---,0.00,VWS V14.01,2013-03-07 20:46:00,
2013-03-07 14:51:00,68.8,60.6,30.09,East,96,16.0,16.0,75,0.00,,---,0.00,VWS V14.01,2013-03-07 20:51:00,
2013-03-07 14:56:00,68.9,60.7,30.09,East,96,14.0,14.0,75,0.00,,---,0.00,VWS V14.01,2013-03-07 20:56:00,
2013-03-07 15:01:00,68.9,60.7,30.09,ESE,103,9.0,14.0,75,0.00,,---,0.00,VWS V14.01,2013-03-07 21:01:00,
2013-03-07 15:06:00,68.9,60.7,30.09,East,101,15.0,16.0,75,0.00,,---,0.00,VWS V14.01,2013-03-07 21:06:00,
2013-03-07 15:11:00,68.7,60.8,30.09,ESE,122,11.0,16.0,76,0.00,,---,0.00,VWS V14.01,2013-03-07 21:11:00,
2013-03-07 15:16:00,68.6,60.7,30.08,SE,128,12.0,17.0,76,0.00,,---,0.00,VWS V14.01,2013-03-07 21:16:00,
2013-03-07 15:21:00,68.7,60.5,30.08,ESE,109,16.0,18.0,75,0.00,,---,0.00,VWS V14.01,2013-03-07 21:21:00,
2013-03-07 15:26:00,69.0,60.8,30.08,East,90,15.0,20.0,75,0.00,,---,0.00,VWS V14.01,2013-03-07 21:26:00,
2013-03-07 15:31:00,69.1,60.8,30.08,ESE,118,13.0,18.0,75,0.00,,---,0.00,VWS V14.01,2013-03-07 21:31:00,
2013-03-07 15:36:00,69.2,61.0,30.08,ESE,104,17.0,17.0,75,0.00,,---,0.00,VWS V14.01,2013-03-07 21:36:00,
2013-03-07 15:41:00,68.9,61.0,30.08,East,92,17.0,17.0,76,0.00,,---,0.00,VWS V14.01,2013-03-07 21:41:00,
2013-03-07 15:46:00,68.8,60.6,30.08,ESE,123,11.0,16.0,75,0.00,,---,0.00,VWS V14.01,2013-03-07 21:46:00,
2013-03-07 15:51:00,68.9,60.7,30.09,ESE,119,10.0,17.0,75,0.00,,---,0.00,VWS V14.01,2013-03-07 21:51:00,
2013-03-07 15:56:00,69.1,60.8,30.09,ESE,115,13.0,15.0,75,0.00,,---,0.00,VWS V14.01,2013-03-07 21:56:00,
2013-03-07 16:01:00,69.0,60.8,30.08,East,99,18.0,18.0,75,0.00,,---,0.00,VWS V14.01,2013-03-07 22:01:00,
2013-03-07 16:06:00,69.1,60.8,30.08,ESE,111,13.0,13.0,75,0.00,,---,0.00,VWS V14.01,2013-03-07 22:06:00,
2013-03-07 16:11:00,69.3,60.7,30.07,East,92,9.0,9.0,74,0.00,,---,0.00,VWS V14.01,2013-03-07 22:11:00,
2013-03-07 16:16:00,69.2,61.0,30.07,ESE,110,11.0,14.0,75,0.00,,---,0.00,VWS V14.01,2013-03-07 22:16:00,
2013-03-07 16:21:00,69.0,60.8,30.07,East,96,18.0,20.0,75,0.00,,---,0.00,VWS V14.01,2013-03-07 22:21:00,
2013-03-07 16:26:00,69.0,60.8,30.07,ESE,105,17.0,17.0,75,0.00,,---,0.00,VWS V14.01,2013-03-07 22:26:00,
2013-03-07 16:31:00,68.9,60.7,30.07,East,97,15.0,20.0,75,0.00,,---,0.00,VWS V14.01,2013-03-07 22:31:00,
2013-03-07 16:36:00,68.7,60.8,30.07,ESE,103,12.0,13.0,76,0.00,,---,0.00,VWS V14.01,2013-03-07 22:36:00,
2013-03-07 16:41:00,68.7,60.8,30.07,ESE,114,9.0,16.0,76,0.00,,---,0.00,VWS V14.01,2013-03-07 22:41:00,
2013-03-07 16:46:00,68.6,61.1,30.07,ESE,107,12.0,15.0,77,0.00,,---,0.00,VWS V14.01,2013-03-07 22:46:00,
2013-03-07 16:51:00,68.5,61.0,30.07,SE,126,13.0,18.0,77,0.00,,---,0.00,VWS V14.01,2013-03-07 22:51:00,
2013-03-07 16:56:00,68.4,60.9,30.07,ESE,107,13.0,18.0,77,0.00,,---,0.00,VWS V14.01,2013-03-07 22:56:00,
2013-03-07 17:01:00,68.3,61.2,30.07,SE,144,15.0,16.0,78,0.00,,---,0.00,VWS V14.01,2013-03-07 23:01:00,
2013-03-07 17:06:00,68.2,61.1,30.07,SE,126,11.0,16.0,78,0.00,,---,0.00,VWS V14.01,2013-03-07 23:06:00,
2013-03-07 17:12:00,68.1,61.0,30.07,East,86,14.0,16.0,78,0.00,,---,0.00,VWS V14.01,2013-03-07 23:12:00,
2013-03-07 17:17:00,68.2,61.1,30.08,SE,124,12.0,14.0,78,0.00,,---,0.00,VWS V14.01,2013-03-07 23:17:00,
2013-03-07 17:22:00,68.3,61.2,30.07,ESE,107,10.0,14.0,78,0.00,,---,0.00,VWS V14.01,2013-03-07 23:22:00,
2013-03-07 17:27:00,68.1,61.0,30.08,SE,140,14.0,19.0,78,0.00,,---,0.00,VWS V14.01,2013-03-07 23:27:00,
2013-03-07 17:32:00,67.9,61.2,30.08,East,90,15.0,17.0,79,0.00,,---,0.00,VWS V14.01,2013-03-07 23:32:00,
2013-03-07 17:37:00,67.8,61.1,30.08,SE,133,11.0,16.0,79,0.00,,---,0.00,VWS V14.01,2013-03-07 23:37:00,
2013-03-07 17:42:00,67.7,61.3,30.08,ESE,109,15.0,19.0,80,0.00,,---,0.00,VWS V14.01,2013-03-07 23:42:00,
2013-03-07 17:47:00,67.6,61.2,30.08,ESE,107,10.0,14.0,80,0.00,,---,0.00,VWS V14.01,2013-03-07 23:47:00,
2013-03-07 17:52:00,67.6,61.2,30.08,ESE,114,10.0,17.0,80,0.00,,---,0.00,VWS V14.01,2013-03-07 23:52:00,
2013-03-07 17:57:00,67.5,61.1,30.08,SE,125,10.0,16.0,80,0.00,,---,0.00,VWS V14.01,2013-03-07 23:57:00,
2013-03-07 18:02:00,67.4,61.4,30.09,ESE,103,6.0,11.0,81,0.00,,---,0.00,VWS V14.01,2013-03-08 00:02:00,
2013-03-07 18:07:00,67.2,61.2,30.09,East,99,6.0,9.0,81,0.00,,---,0.00,VWS V14.01,2013-03-08 00:07:00,
2013-03-07 18:12:00,67.1,61.1,30.09,SE,133,14.0,14.0,81,0.00,,---,0.00,VWS V14.01,2013-03-08 00:12:00,
2013-03-07 18:17:00,67.0,61.3,30.09,ESE,115,9.0,15.0,82,0.00,,---,0.00,VWS V14.01,2013-03-08 00:17:00,
2013-03-07 18:22:00,66.9,61.2,30.09,ESE,105,12.0,12.0,82,0.00,,---,0.00,VWS V14.01,2013-03-08 00:22:00,
2013-03-07 18:27:00,66.9,61.2,30.09,East,97,12.0,15.0,82,0.00,,---,0.00,VWS V14.01,2013-03-08 00:27:00,
2013-03-07 18:32:00,66.8,61.5,30.09,ESE,118,11.0,14.0,83,0.00,,---,0.00,VWS V14.01,2013-03-08 00:32:00,
2013-03-07 18:37:00,66.7,61.4,30.08,ESE,109,14.0,15.0,83,0.00,,---,0.00,VWS V14.01,2013-03-08 00:37:00,
2013-03-07 18:42:00,66.7,61.4,30.08,ESE,103,11.0,16.0,83,0.00,,---,0.00,VWS V14.01,2013-03-08 00:42:00,
2013-03-07 18:47:00,66.5,61.2,30.08,ESE,110,11.0,14.0,83,0.00,,---,0.00,VWS V14.01,2013-03-08 00:47:00,
2013-03-07 18:52:00,66.4,61.4,30.08,ESE,102,10.0,13.0,84,0.00,,---,0.00,VWS V14.01,2013-03-08 00:52:00,
2013-03-07 18:57:00,66.4,61.4,30.08,ESE,110,10.0,13.0,84,0.00,,---,0.00,VWS V14.01,2013-03-08 00:57:00,
2013-03-07 19:02:00,66.3,61.3,30.08,ESE,114,6.0,10.0,84,0.00,,---,0.00,VWS V14.01,2013-03-08 01:02:00,
2013-03-07 19:07:00,66.3,61.3,30.08,East,101,12.0,14.0,84,0.00,,---,0.00,VWS V14.01,2013-03-08 01:07:00,
2013-03-07 19:12:00,66.2,61.2,30.08,ESE,117,4.0,11.0,84,0.00,,---,0.00,VWS V14.01,2013-03-08 01:12:00,
2013-03-07 19:17:00,66.2,61.2,30.09,ESE,121,6.0,9.0,84,0.00,,---,0.00,VWS V14.01,2013-03-08 01:17:00,
2013-03-07 19:21:00,66.2,61.2,30.09,ESE,103,4.0,6.0,84,0.00,,---,0.00,VWS V14.01,2013-03-08 01:21:00,
2013-03-07 19:26:00,66.2,61.2,30.09,ESE,114,9.0,12.0,84,0.00,,---,0.00,VWS V14.01,2013-03-08 01:26:00,
2013-03-07 19:31:00,66.2,61.2,30.10,ESE,115,5.0,14.0,84,0.00,,---,0.00,VWS V14.01,2013-03-08 01:31:00,
2013-03-07 19:36:00,66.1,61.1,30.10,SE,125,11.0,11.0,84,0.00,,---,0.00,VWS V14.01,2013-03-08 01:36:00,
2013-03-07 19:41:00,66.1,61.1,30.10,ESE,115,8.0,10.0,84,0.00,,---,0.00,VWS V14.01,2013-03-08 01:41:00,
2013-03-07 19:46:00,65.9,60.9,30.09,East,92,11.0,12.0,84,0.00,,---,0.00,VWS V14.01,2013-03-08 01:46:00,
2013-03-07 19:51:00,65.8,61.2,30.09,East,94,6.0,10.0,85,0.00,,---,0.00,VWS V14.01,2013-03-08 01:51:00,
2013-03-07 19:56:00,65.7,61.1,30.10,ESE,115,6.0,8.0,85,0.00,,---,0.00,VWS V14.01,2013-03-08 01:56:00,
2013-03-07 20:01:00,65.6,61.3,30.10,ESE,111,6.0,9.0,86,0.00,,---,0.00,VWS V14.01,2013-03-08 02:01:00,
2013-03-07 20:06:00,65.6,61.3,30.10,East,100,8.0,11.0,86,0.00,,---,0.00,VWS V14.01,2013-03-08 02:06:00,
2013-03-07 20:11:00,65.6,61.3,30.09,ESE,123,10.0,12.0,86,0.00,,---,0.00,VWS V14.01,2013-03-08 02:11:00,
2013-03-07 20:16:00,65.4,61.1,30.09,ESE,119,10.0,10.0,86,0.00,,---,0.00,VWS V14.01,2013-03-08 02:16:00,
2013-03-07 20:21:00,65.4,61.1,30.09,East,88,10.0,10.0,86,0.00,,---,0.00,VWS V14.01,2013-03-08 02:21:00,
2013-03-07 20:26:00,65.3,61.0,30.09,SE,138,5.0,14.0,86,0.00,,---,0.00,VWS V14.01,2013-03-08 02:26:00,
2013-03-07 20:31:00,65.3,61.3,30.09,ESE,103,12.0,12.0,87,0.00,,---,0.00,VWS V14.01,2013-03-08 02:31:00,
2013-03-07 20:36:00,65.4,61.4,30.10,SE,125,8.0,8.0,87,0.00,,---,0.00,VWS V14.01,2013-03-08 02:36:00,
2013-03-07 20:41:00,65.6,61.6,30.10,SE,126,9.0,11.0,87,0.00,,---,0.00,VWS V14.01,2013-03-08 02:41:00,
2013-03-07 20:47:00,65.7,61.7,30.10,SE,128,5.0,6.0,87,0.00,,---,0.00,VWS V14.01,2013-03-08 02:47:00,
2013-03-07 20:52:00,65.7,61.4,30.10,ESE,115,4.0,7.0,86,0.00,,---,0.00,VWS V14.01,2013-03-08 02:52:00,
2013-03-07 20:57:00,65.7,61.7,30.10,ESE,111,11.0,11.0,87,0.00,,---,0.00,VWS V14.01,2013-03-08 02:57:00,
2013-03-07 21:02:00,65.7,61.7,30.10,ESE,105,5.0,11.0,87,0.00,,---,0.00,VWS V14.01,2013-03-08 03:02:00,
2013-03-07 21:07:00,65.7,61.7,30.10,ESE,118,12.0,13.0,87,0.00,,---,0.00,VWS V14.01,2013-03-08 03:07:00,
2013-03-07 21:12:00,65.6,61.6,30.10,ESE,105,7.0,9.0,87,0.00,,---,0.00,VWS V14.01,2013-03-08 03:12:00,
2013-03-07 21:17:00,65.6,61.6,30.10,ESE,115,7.0,9.0,87,0.00,,---,0.00,VWS V14.01,2013-03-08 03:17:00,
2013-03-07 21:22:00,65.5,61.5,30.11,East,101,11.0,11.0,87,0.00,,---,0.00,VWS V14.01,2013-03-08 03:22:00,
2013-03-07 21:27:00,65.5,61.5,30.11,ESE,117,6.0,10.0,87,0.00,,---,0.00,VWS V14.01,2013-03-08 03:27:00,
2013-03-07 21:32:00,65.5,61.5,30.11,ESE,115,4.0,9.0,87,0.00,,---,0.00,VWS V14.01,2013-03-08 03:32:00,
2013-03-07 21:37:00,65.6,61.6,30.10,ESE,121,5.0,6.0,87,0.00,,---,0.00,VWS V14.01,2013-03-08 03:37:00,
2013-03-07 21:42:00,65.6,61.6,30.11,ESE,113,2.0,5.0,87,0.00,,---,0.00,VWS V14.01,2013-03-08 03:42:00,
2013-03-07 21:47:00,65.6,61.6,30.11,SE,141,12.0,12.0,87,0.00,,---,0.00,VWS V14.01,2013-03-08 03:47:00,
2013-03-07 21:52:00,65.7,61.7,30.11,ESE,107,6.0,6.0,87,0.00,,---,0.00,VWS V14.01,2013-03-08 03:52:00,
2013-03-07 21:57:00,65.6,61.3,30.10,SE,137,10.0,11.0,86,0.00,,---,0.00,VWS V14.01,2013-03-08 03:57:00,
2013-03-07 22:02:00,65.6,61.3,30.10,SE,126,10.0,12.0,86,0.00,,---,0.00,VWS V14.01,2013-03-08 04:02:00,
2013-03-07 22:07:00,65.7,61.4,30.10,ESE,105,6.0,10.0,86,0.00,,---,0.00,VWS V14.01,2013-03-08 04:07:00,
2013-03-07 22:11:00,65.7,61.4,30.11,SE,126,7.0,8.0,86,0.00,,---,0.00,VWS V14.01,2013-03-08 04:11:00,
2013-03-07 22:16:00,65.7,61.4,30.11,ESE,110,3.0,9.0,86,0.00,,---,0.00,VWS V14.01,2013-03-08 04:16:00,
2013-03-07 22:21:00,65.6,61.3,30.10,ESE,110,8.0,10.0,86,0.00,,---,0.00,VWS V14.01,2013-03-08 04:21:00,
2013-03-07 22:26:00,65.6,61.3,30.11,East,101,8.0,12.0,86,0.00,,---,0.00,VWS V14.01,2013-03-08 04:26:00,
2013-03-07 22:32:00,65.6,61.3,30.11,ESE,119,6.0,9.0,86,0.00,,---,0.00,VWS V14.01,2013-03-08 04:32:00,
2013-03-07 22:37:00,65.6,61.3,30.11,ESE,122,4.0,11.0,86,0.00,,---,0.00,VWS V14.01,2013-03-08 04:37:00,
2013-03-07 22:42:00,65.6,61.3,30.10,ESE,119,9.0,13.0,86,0.00,,---,0.00,VWS V14.01,2013-03-08 04:42:00,
2013-03-07 22:47:00,65.6,61.6,30.10,ESE,103,9.0,12.0,87,0.00,,---,0.00,VWS V14.01,2013-03-08 04:47:00,
2013-03-07 22:52:00,65.5,61.5,30.09,SE,139,6.0,11.0,87,0.00,,---,0.00,VWS V14.01,2013-03-08 04:52:00,
2013-03-07 22:57:00,65.5,61.5,30.09,ESE,117,6.0,9.0,87,0.00,,---,0.00,VWS V14.01,2013-03-08 04:57:00,
2013-03-07 23:00:00,65.5,61.5,30.10,SE,128,7.0,7.0,87,0.00,,---,0.00,VWS V14.01,2013-03-08 05:00:00,
2013-03-07 23:01:00,65.4,61.4,30.10,SE,131,6.0,7.0,87,0.00,,---,0.00,VWS V14.01,2013-03-08 05:01:00,
2013-03-07 23:06:00,65.5,61.5,30.10,ESE,121,5.0,8.0,87,0.00,,---,0.00,VWS V14.01,2013-03-08 05:06:00,
2013-03-07 23:11:00,65.6,61.6,30.10,ESE,108,7.0,9.0,87,0.00,,---,0.00,VWS V14.01,2013-03-08 05:11:00,
2013-03-07 23:16:00,65.6,61.6,30.10,East,97,6.0,11.0,87,0.00,,---,0.00,VWS V14.01,2013-03-08 05:16:00,
2013-03-07 23:21:00,65.6,61.6,30.08,ESE,105,9.0,13.0,87,0.00,,---,0.00,VWS V14.01,2013-03-08 05:21:00,
2013-03-07 23:26:00,65.5,61.5,30.08,ESE,107,6.0,10.0,87,0.00,,---,0.00,VWS V14.01,2013-03-08 05:26:00,
2013-03-07 23:31:00,65.4,61.8,30.07,ESE,121,7.0,12.0,88,0.00,,---,0.00,VWS V14.01,2013-03-08 05:31:00,
2013-03-07 23:36:00,65.3,61.7,30.08,ESE,115,5.0,7.0,88,0.00,,---,0.00,VWS V14.01,2013-03-08 05:36:00,
2013-03-07 23:41:00,65.3,61.7,30.08,SE,136,9.0,9.0,88,0.00,,---,0.00,VWS V14.01,2013-03-08 05:41:00,
2013-03-07 23:46:00,65.3,62.0,30.08,ESE,118,5.0,7.0,89,0.00,,---,0.00,VWS V14.01,2013-03-08 05:46:00,
2013-03-07 23:51:00,65.3,62.0,30.09,ESE,114,5.0,5.0,89,0.00,,---,0.00,VWS V14.01,2013-03-08 05:51:00,
2013-03-07 23:56:00,65.3,62.0,30.08,ESE,119,3.0,6.0,89,0.00,,---,0.00,VWS V14.01,2013-03-08 05:56:00,